Abraham Lincoln Capital Airport Airport (SPI)

 

Airport Diagram
Current Weather/Forecast (VFR Conditions)
METAR KSPI 050252Z AUTO 00000KT 8SM CLR 24/22 A2997 RMK AO2 SLP144 T02390217 53005 $
TAF KSPI 042320Z 0500/0524 06003KT P6SM FEW080 SCT200

All Charts
General
Chart Name Download
AIRPORT DIAGRAM
TAKEOFF MINIMUMS
ALTERNATE MINIMUMS
RADAR MINIMUMS
HOT SPOT
LAHSO

Approaches
Chart Name Download
ILS OR LOC RWY 04
ILS OR LOC RWY 22
ILS OR LOC RWY 31
RNAV (GPS) RWY 04
RNAV (GPS) RWY 13
RNAV (GPS) RWY 22
RNAV (GPS) RWY 31
VOR/DME RWY 13
VOR/DME RWY 22
VOR/DME RWY 31
VOR RWY 04


Inbound Traffic (Arrivals)

No inbound traffic.


Outbound Traffic (Departures)

No outbound traffic.